GFSGBSN_500_temp_276.txt.gz
Temp
-13 -13 -13 -13 -13 -13 -13 -13 -13 -13 -13 -13 -13 -13 -13 -13 -13 -13 -13 -14 -14 -14 -14 -14 -14 -14 -13 -13 -13 -12 -12 -12 -12 -12 -12 -12 -12 -12 -12 -11 -11 -11 -10 -10 -10 -10 -10
-13 -13 -13 -13 -13 -13 -13 -13 -13 -13 -13 -13 -13 -13 -13 -13 -13 -13 -13 -14 -14 -14 -14 -14 -14 -14 -14 -14 -13 -13 -13 -12 -12 -12 -12 -12 -12 -13 -13 -12 -12 -11 -11 -10 -10 -10 -11
-13 -13 -13 -13 -13 -13 -13 -13 -13 -13 -13 -13 -13 -13 -13 -13 -13 -13 -13 -14 -14 -14 -14 -14 -14 -14 -14 -14 -14 -13 -13 -13 -13 -12 -12 -12 -12 -13 -13 -13 -12 -12 -11 -11 -10 -10 -11
-14 -14 -13 -13 -13 -13 -13 -13 -13 -13 -13 -13 -13 -13 -13 -13 -13 -13 -13 -13 -14 -14 -14 -14 -14 -14 -14 -14 -14 -14 -14 -13 -13 -13 -12 -12 -12 -12 -13 -13 -13 -12 -12 -11 -11 -11 -10
-14 -14 -14 -14 -14 -14 -14 -14 -14 -13 -13 -13 -14 -14 -14 -13 -13 -13 -13 -13 -13 -14 -14 -14 -14 -14 -15 -14 -14 -14 -14 -13 -13 -13 -13 -13 -12 -12 -13 -13 -13 -12 -12 -12 -11 -11 -11
-14 -14 -14 -14 -14 -14 -14 -14 -14 -14 -14 -14 -14 -14 -14 -14 -13 -13 -13 -13 -13 -14 -14 -14 -14 -14 -15 -15 -15 -14 -14 -14 -13 -13 -13 -13 -13 -13 -13 -13 -12 -13 -13 -13 -12 -12 -11
-14 -14 -14 -14 -14 -14 -14 -14 -14 -14 -14 -14 -14 -14 -14 -14 -14 -14 -14 -13 -13 -14 -14 -15 -15 -15 -15 -15 -15 -15 -15 -14 -14 -14 -13 -13 -13 -13 -13 -13 -13 -14 -14 -13 -13 -12 -12
-14 -14 -14 -14 -14 -14 -14 -14 -14 -14 -14 -14 -14 -14 -14 -14 -14 -14 -14 -14 -14 -14 -14 -14 -15 -15 -15 -15 -15 -15 -15 -15 -15 -15 -14 -14 -13 -13 -13 -13 -14 -14 -13 -14 -13 -13 -13
-14 -14 -14 -14 -14 -14 -14 -14 -14 -14 -14 -14 -15 -14 -14 -14 -14 -14 -14 -14 -14 -14 -14 -15 -15 -15 -15 -15 -15 -15 -15 -15 -15 -15 -15 -15 -14 -13 -14 -14 -13 -14 -14 -14 -14 -13 -13
-14 -14 -14 -14 -14 -14 -14 -14 -14 -14 -14 -15 -15 -14 -14 -14 -14 -14 -14 -14 -14 -14 -14 -14 -15 -15 -15 -15 -15 -16 -16 -16 -15 -16 -16 -15 -15 -15 -14 -13 -14 -14 -14 -15 -14 -14 -14
-14 -14 -14 -14 -14 -14 -14 -14 -14 -14 -14 -15 -15 -15 -15 -15 -15 -15 -15 -15 -15 -15 -15 -15 -15 -15 -15 -16 -16 -16 -16 -16 -16 -16 -16 -15 -16 -16 -15 -14 -15 -13 -15 -15 -15 -15 -15
-14 -14 -14 -14 -15 -15 -15 -15 -15 -15 -15 -15 -15 -15 -15 -15 -15 -15 -15 -15 -15 -15 -15 -15 -15 -16 -16 -16 -16 -16 -16 -16 -16 -16 -16 -16 -16 -16 -15 -16 -16 -15 -16 -16 -16 -16 -16
-14 -14 -14 -14 -15 -15 -15 -15 -15 -15 -15 -15 -15 -15 -15 -15 -15 -15 -15 -16 -16 -16 -16 -16 -16 -16 -17 -17 -17 -17 -17 -17 -17 -16 -16 -17 -17 -17 -16 -16 -17 -16 -17 -17 -17 -18 -13
-15 -15 -15 -15 -15 -15 -15 -15 -15 -15 -15 -15 -15 -15 -15 -15 -16 -16 -16 -17 -17 -16 -17 -17 -17 -17 -17 -17 -17 -17 -17 -17 -17 -17 -17 -17 -17 -17 -16 -16 -17 -17 -17 -17 -17 -17 -12
-15 -15 -15 -15 -15 -15 -15 -15 -15 -15 -15 -15 -16 -16 -16 -17 -17 -18 -18 -18 -18 -18 -18 -18 -18 -18 -18 -18 -18 -18 -18 -18 -18 -18 -18 -17 -17 -17 -17 -17 -18 -17 -18 -17 -16 -17 -17
-16 -16 -16 -16 -16 -16 -16 -16 -16 -16 -16 -16 -17 -17 -18 -19 -19 -19 -19 -19 -19 -19 -19 -19 -19 -19 -19 -18 -19 -19 -19 -18 -19 -19 -19 -18 -17 -17 -17 -18 -17 -18 -17 -18 -18 -18 -17
-16 -16 -16 -17 -17 -17 -17 -17 -18 -18 -18 -18 -19 -19 -20 -20 -20 -20 -20 -20 -20 -20 -20 -20 -20 -20 -20 -20 -20 -20 -20 -19 -19 -19 -19 -19 -18 -18 -17 -17 -17 -17 -17 -18 -18 -17 -17
-17 -17 -18 -18 -18 -19 -18 -18 -19 -19 -20 -20 -20 -20 -20 -20 -21 -21 -21 -21 -21 -21 -21 -21 -21 -21 -21 -21 -21 -21 -20 -20 -20 -20 -20 -20 -19 -18 -18 -18 -18 -18 -18 -18 -18 -17 -17
-18 -18 -19 -19 -20 -20 -20 -20 -20 -20 -20 -20 -20 -20 -21 -21 -22 -22 -22 -22 -22 -22 -22 -22 -22 -22 -21 -22 -22 -21 -21 -21 -21 -21 -21 -21 -20 -19 -19 -18 -18 -18 -18 -18 -18 -18 -18
-20 -20 -21 -21 -21 -21 -21 -21 -20 -21 -21 -21 -21 -21 -22 -22 -23 -23 -23 -23 -23 -23 -23 -23 -23 -23 -23 -22 -23 -22 -21 -22 -22 -22 -22 -22 -21 -20 -19 -19 -20 -19 -18 -18 -18 -18 -17
-22 -22 -22 -22 -22 -22 -21 -21 -21 -21 -22 -22 -22 -22 -23 -23 -24 -24 -25 -25 -25 -25 -25 -25 -25 -24 -24 -24 -23 -23 -22 -22 -23 -22 -23 -22 -21 -22 -20 -20 -20 -19 -19 -19 -19 -17 -17
-23 -23 -23 -23 -23 -23 -23 -23 -22 -22 -23 -23 -23 -23 -24 -25 -26 -26 -26 -26 -26 -26 -26 -26 -26 -26 -25 -25 -25 -24 -23 -22 -23 -23 -23 -23 -22 -22 -21 -21 -20 -20 -19 -19 -18 -17 -18
-23 -23 -24 -24 -23 -24 -24 -24 -24 -23 -24 -24 -25 -25 -25 -26 -27 -27 -27 -27 -27 -27 -27 -27 -27 -27 -27 -26 -26 -25 -24 -24 -23 -24 -25 -24 -23 -22 -21 -22 -22 -22 -18 -18 -18 -18 -17
-24 -24 -24 -24 -24 -25 -25 -25 -26 -26 -26 -25 -26 -26 -26 -27 -27 -28 -28 -28 -28 -28 -28 -28 -28 -27 -27 -27 -27 -26 -25 -25 -24 -24 -24 -24 -24 -23 -22 -22 -22 -18 -20 -19 -19 -18 -18
-25 -25 -25 -25 -25 -26 -27 -27 -27 -27 -27 -27 -27 -27 -27 -27 -28 -28 -28 -28 -28 -28 -28 -28 -28 -28 -28 -27 -27 -27 -27 -25 -25 -25 -25 -24 -24 -23 -23 -22 -21 -21 -19 -19 -19 -18 -19
-25 -25 -26 -26 -27 -28 -28 -28 -28 -28 -28 -28 -28 -28 -28 -28 -28 -28 -28 -28 -28 -28 -28 -29 -29 -28 -28 -28 -28 -27 -27 -27 -26 -25 -25 -25 -24 -24 -23 -23 -22 -19 -20 -20 -20 -19 -19
-26 -26 -27 -28 -28 -29 -29 -29 -29 -29 -29 -29 -29 -29 -28 -28 -28 -28 -28 -28 -28 -28 -28 -29 -29 -29 -28 -28 -27 -27 -27 -27 -26 -26 -26 -26 -25 -24 -23 -24 -21 -20 -21 -21 -21 -19 -20
-27 -27 -28 -29 -29 -29 -29 -29 -29 -29 -29 -29 -29 -29 -29 -28 -28 -28 -28 -28 -28 -28 -29 -29 -28 -29 -29 -29 -28 -28 -27 -27 -26 -26 -26 -26 -26 -25 -24 -24 -23 -21 -22 -22 -21 -21 -20
-28 -29 -29 -29 -29 -29 -30 -30 -29 -29 -30 -30 -29 -30 -29 -29 -28 -28 -28 -28 -29 -29 -29 -29 -29 -29 -29 -29 -29 -28 -28 -27 -27 -26 -27 -27 -27 -26 -25 -24 -22 -23 -24 -22 -21 -21 -21

GFSGBSN_500_temp_279.txt.gz
Temp
-13 -13 -13 -13 -13 -13 -13 -13 -13 -13 -13 -13 -13 -13 -13 -13 -13 -13 -13 -13 -13 -13 -13 -13 -14 -14 -13 -13 -13 -13 -12 -12 -11 -12 -11 -11 -11 -12 -12 -12 -11 -11 -11 -10 -10 -10 -10
-13 -13 -13 -13 -13 -13 -13 -13 -13 -13 -13 -13 -13 -13 -13 -13 -13 -13 -13 -13 -13 -13 -13 -13 -13 -14 -14 -14 -14 -13 -13 -12 -12 -12 -12 -12 -11 -12 -12 -12 -12 -12 -12 -10 -10 -10 -10
-14 -14 -14 -14 -13 -13 -13 -13 -13 -13 -13 -13 -13 -13 -13 -13 -13 -13 -13 -13 -13 -13 -13 -13 -13 -13 -14 -14 -14 -14 -13 -13 -13 -12 -12 -12 -12 -11 -12 -13 -12 -12 -11 -11 -11 -10 -10
-14 -14 -14 -14 -14 -13 -13 -13 -13 -13 -13 -13 -13 -13 -13 -13 -13 -13 -13 -13 -13 -13 -13 -14 -13 -14 -14 -14 -14 -14 -14 -13 -13 -13 -12 -12 -12 -12 -12 -13 -12 -12 -12 -12 -12 -11 -11
-14 -14 -14 -13 -13 -13 -13 -14 -14 -13 -14 -14 -14 -13 -14 -14 -14 -14 -13 -13 -13 -13 -13 -13 -14 -14 -14 -14 -14 -14 -14 -14 -14 -13 -13 -13 -12 -12 -12 -12 -13 -13 -12 -12 -13 -12 -12
-13 -13 -13 -13 -13 -13 -14 -14 -14 -14 -13 -14 -14 -14 -14 -14 -14 -14 -14 -13 -13 -13 -13 -13 -14 -14 -14 -14 -14 -14 -14 -14 -14 -14 -13 -13 -13 -13 -12 -12 -11 -13 -13 -14 -13 -12 -12
-13 -13 -14 -14 -14 -14 -14 -14 -14 -14 -14 -14 -14 -14 -14 -14 -14 -14 -14 -14 -14 -14 -14 -14 -14 -14 -14 -14 -14 -14 -14 -14 -14 -14 -14 -14 -13 -12 -13 -13 -13 -14 -14 -14 -13 -13 -12
-14 -14 -14 -14 -14 -14 -14 -14 -14 -14 -14 -14 -14 -14 -14 -14 -14 -14 -14 -14 -14 -14 -14 -14 -14 -14 -14 -14 -14 -14 -14 -15 -14 -14 -14 -14 -13 -13 -13 -13 -13 -13 -14 -14 -14 -14 -14
-14 -14 -14 -14 -14 -14 -14 -14 -14 -14 -14 -14 -14 -14 -14 -14 -14 -14 -14 -14 -14 -14 -14 -14 -14 -14 -14 -14 -15 -14 -14 -15 -15 -15 -14 -14 -14 -14 -14 -14 -13 -13 -13 -15 -14 -14 -14
-14 -14 -14 -14 -14 -14 -14 -14 -14 -14 -14 -14 -14 -14 -14 -14 -14 -14 -14 -14 -14 -14 -14 -14 -14 -14 -14 -14 -14 -15 -15 -15 -15 -15 -15 -14 -15 -14 -14 -14 -13 -13 -13 -14 -15 -15 -15
-14 -14 -14 -14 -14 -14 -14 -14 -14 -14 -14 -15 -15 -15 -15 -14 -14 -15 -15 -15 -15 -15 -15 -14 -14 -15 -15 -15 -15 -15 -15 -15 -15 -15 -15 -15 -15 -15 -14 -14 -15 -13 -15 -16 -16 -15 -16
-14 -14 -15 -14 -15 -15 -15 -15 -15 -15 -15 -15 -15 -15 -15 -15 -15 -15 -15 -15 -15 -15 -15 -15 -15 -15 -15 -15 -15 -15 -16 -16 -16 -15 -15 -15 -15 -15 -15 -16 -15 -14 -15 -15 -17 -16 -16
-15 -15 -15 -15 -15 -15 -15 -15 -15 -15 -15 -15 -15 -15 -15 -15 -15 -15 -15 -15 -15 -15 -15 -15 -15 -16 -16 -16 -16 -16 -16 -16 -16 -16 -16 -16 -16 -15 -16 -16 -16 -16 -16 -16 -17 -17 -16
-15 -15 -15 -15 -15 -15 -15 -15 -15 -15 -15 -15 -15 -15 -15 -15 -15 -15 -15 -16 -16 -16 -16 -16 -17 -17 -17 -17 -17 -17 -17 -16 -17 -17 -17 -17 -16 -16 -16 -15 -16 -17 -17 -17 -17 -17 -16
-16 -16 -15 -15 -15 -15 -15 -15 -15 -15 -15 -15 -15 -16 -16 -16 -16 -16 -16 -16 -17 -17 -18 -18 -18 -18 -18 -18 -18 -18 -18 -18 -18 -18 -18 -18 -17 -18 -17 -16 -17 -16 -18 -16 -17 -17 -16
-16 -16 -16 -16 -16 -16 -16 -16 -16 -16 -16 -16 -16 -16 -17 -17 -18 -18 -18 -18 -18 -19 -19 -19 -19 -19 -19 -20 -18 -19 -19 -19 -18 -18 -19 -18 -18 -18 -18 -17 -16 -16 -16 -18 -19 -18 -17
-16 -16 -16 -16 -16 -17 -17 -18 -18 -18 -18 -18 -18 -18 -18 -19 -19 -19 -20 -20 -20 -20 -20 -20 -20 -20 -20 -20 -19 -20 -20 -21 -19 -19 -19 -19 -18 -17 -18 -16 -16 -17 -17 -18 -19 -18 -18
-17 -17 -17 -18 -18 -18 -18 -19 -19 -20 -20 -20 -20 -20 -20 -20 -20 -20 -20 -21 -21 -21 -21 -21 -21 -21 -21 -21 -21 -20 -21 -23 -19 -19 -19 -20 -18 -18 -18 -18 -18 -17 -18 -18 -18 -18 -18
-19 -19 -19 -19 -19 -19 -19 -20 -21 -21 -21 -21 -21 -21 -21 -21 -21 -21 -21 -21 -22 -22 -22 -22 -22 -22 -22 -22 -22 -22 -22 -22 -20 -21 -20 -20 -20 -20 -20 -19 -19 -19 -18 -20 -19 -18 -18
-20 -20 -20 -20 -21 -21 -21 -22 -21 -21 -21 -21 -21 -21 -21 -21 -21 -22 -22 -22 -23 -23 -23 -23 -23 -23 -23 -23 -23 -23 -23 -22 -22 -22 -21 -21 -21 -21 -21 -21 -20 -20 -20 -19 -19 -19 -18
-21 -21 -22 -22 -23 -23 -22 -22 -22 -22 -22 -22 -22 -22 -22 -22 -23 -23 -23 -24 -24 -24 -24 -25 -24 -24 -24 -24 -24 -24 -24 -23 -22 -23 -22 -22 -21 -22 -21 -22 -21 -20 -19 -20 -20 -19 -19
-23 -23 -23 -23 -23 -23 -23 -23 -23 -23 -23 -23 -23 -23 -23 -24 -24 -24 -24 -25 -25 -25 -25 -26 -25 -25 -25 -25 -25 -25 -25 -24 -23 -24 -23 -23 -22 -23 -22 -21 -21 -20 -20 -20 -20 -18 -19
-24 -24 -24 -24 -24 -24 -24 -24 -24 -24 -24 -24 -24 -24 -24 -25 -25 -26 -26 -26 -26 -26 -26 -26 -26 -26 -26 -26 -26 -26 -26 -25 -25 -24 -24 -24 -24 -24 -23 -23 -22 -23 -21 -20 -19 -20 -20
-24 -24 -25 -24 -25 -25 -25 -25 -25 -25 -25 -25 -26 -26 -26 -26 -27 -27 -27 -27 -27 -27 -27 -27 -27 -27 -27 -27 -27 -27 -27 -26 -26 -25 -25 -24 -24 -24 -24 -23 -24 -20 -20 -22 -22 -21 -21
-25 -25 -25 -25 -25 -25 -26 -26 -26 -26 -27 -27 -27 -27 -27 -27 -27 -28 -28 -28 -28 -28 -28 -28 -28 -28 -27 -28 -28 -27 -27 -27 -27 -26 -26 -26 -26 -25 -25 -24 -22 -22 -22 -22 -22 -20 -21
-26 -26 -26 -26 -26 -26 -27 -27 -28 -28 -28 -28 -28 -28 -28 -27 -28 -28 -28 -28 -28 -28 -28 -28 -28 -28 -28 -28 -28 -27 -27 -27 -27 -27 -26 -26 -26 -26 -25 -24 -23 -20 -22 -21 -22 -21 -21
-27 -27 -27 -27 -27 -27 -28 -28 -29 -29 -29 -29 -29 -29 -29 -28 -28 -28 -28 -28 -28 -28 -28 -28 -28 -28 -28 -28 -28 -28 -27 -28 -27 -27 -27 -27 -26 -26 -25 -25 -23 -22 -22 -23 -22 -20 -21
-27 -28 -28 -28 -28 -29 -29 -30 -30 -30 -30 -30 -30 -30 -29 -29 -29 -29 -29 -28 -28 -28 -28 -28 -28 -28 -28 -28 -28 -28 -28 -27 -27 -27 -27 -28 -27 -27 -26 -26 -24 -23 -23 -23 -22 -22 -21
-28 -28 -28 -29 -29 -30 -30 -30 -30 -30 -30 -30 -30 -30 -30 -30 -29 -29 -29 -29 -29 -29 -29 -29 -29 -29 -29 -29 -28 -29 -29 -28 -28 -27 -27 -27 -28 -27 -27 -26 -24 -24 -24 -24 -23 -21 -21

GFSGBSN_500_temp_282.txt.gz
Temp
-13 -13 -13 -13 -13 -13 -13 -13 -13 -13 -13 -13 -13 -13 -13 -13 -13 -13 -13 -13 -13 -13 -13 -13 -13 -13 -13 -13 -13 -13 -13 -12 -12 -11 -11 -11 -11 -11 -10 -11 -12 -11 -11 -11 -11 -10 -9
-14 -14 -14 -13 -13 -13 -13 -13 -13 -13 -13 -13 -13 -13 -13 -13 -13 -13 -13 -13 -13 -13 -13 -13 -13 -13 -13 -13 -13 -13 -13 -13 -12 -12 -11 -11 -11 -11 -11 -11 -12 -12 -12 -12 -12 -10 -10
-14 -13 -14 -14 -14 -14 -14 -13 -13 -13 -13 -13 -13 -13 -13 -13 -13 -13 -13 -13 -13 -13 -13 -13 -13 -13 -13 -13 -13 -13 -13 -13 -13 -13 -12 -12 -12 -11 -11 -11 -11 -12 -12 -14 -12 -10 -11
-13 -13 -13 -14 -14 -14 -14 -14 -13 -13 -13 -13 -13 -13 -13 -13 -13 -13 -13 -13 -13 -13 -13 -13 -13 -13 -13 -13 -13 -13 -14 -14 -14 -13 -13 -12 -12 -12 -11 -12 -11 -13 -12 -12 -12 -12 -11
-13 -13 -13 -13 -13 -13 -13 -13 -13 -13 -13 -13 -13 -13 -13 -13 -13 -14 -14 -14 -14 -13 -13 -13 -13 -13 -13 -13 -13 -13 -13 -14 -14 -14 -13 -13 -13 -12 -12 -12 -12 -12 -11 -11 -13 -13 -12
-13 -13 -13 -13 -13 -13 -13 -13 -13 -13 -13 -13 -13 -14 -13 -14 -14 -14 -14 -14 -14 -14 -13 -13 -13 -13 -13 -13 -13 -13 -13 -14 -14 -14 -14 -13 -13 -13 -12 -12 -11 -11 -13 -13 -14 -13 -13
-13 -13 -13 -13 -13 -13 -13 -13 -13 -13 -14 -13 -13 -13 -13 -13 -14 -14 -14 -14 -14 -14 -14 -14 -13 -13 -13 -13 -14 -13 -13 -13 -14 -14 -14 -14 -13 -13 -13 -13 -12 -13 -14 -14 -14 -13 -13
-13 -13 -13 -13 -14 -14 -13 -14 -13 -13 -14 -14 -14 -14 -14 -14 -14 -14 -14 -14 -14 -14 -14 -14 -14 -14 -14 -13 -14 -14 -14 -14 -14 -14 -14 -14 -14 -14 -13 -13 -13 -14 -13 -14 -14 -14 -13
-14 -14 -14 -14 -14 -14 -14 -14 -14 -14 -14 -14 -14 -14 -14 -14 -14 -14 -14 -14 -14 -14 -14 -14 -14 -14 -14 -14 -14 -14 -14 -14 -14 -14 -14 -14 -14 -14 -14 -13 -13 -13 -13 -13 -13 -14 -14
-14 -14 -14 -14 -14 -14 -14 -14 -14 -14 -14 -14 -14 -14 -14 -14 -14 -14 -14 -14 -14 -14 -14 -14 -14 -14 -14 -14 -14 -14 -14 -14 -14 -14 -14 -14 -14 -15 -14 -13 -14 -14 -14 -15 -15 -14 -15
-14 -14 -14 -14 -14 -14 -14 -14 -14 -14 -14 -15 -14 -14 -15 -15 -15 -15 -15 -15 -15 -15 -15 -14 -14 -14 -14 -14 -14 -14 -14 -14 -14 -14 -14 -14 -14 -15 -15 -14 -15 -14 -14 -14 -15 -15 -16
-15 -15 -15 -15 -15 -15 -15 -15 -15 -15 -15 -15 -15 -15 -15 -15 -15 -15 -15 -15 -15 -15 -15 -15 -15 -15 -15 -15 -15 -15 -15 -15 -15 -15 -15 -14 -15 -15 -14 -15 -15 -14 -15 -15 -15 -16 -16
-16 -16 -15 -15 -15 -15 -15 -15 -15 -15 -15 -15 -15 -15 -15 -15 -15 -15 -15 -15 -15 -15 -15 -15 -14 -15 -15 -16 -16 -16 -15 -16 -15 -15 -15 -15 -15 -15 -15 -15 -15 -15 -16 -15 -16 -16 -15
-16 -16 -16 -15 -15 -15 -15 -15 -15 -15 -15 -15 -15 -15 -15 -15 -15 -15 -15 -15 -15 -16 -16 -15 -15 -16 -16 -17 -17 -17 -16 -16 -16 -17 -17 -16 -16 -15 -16 -15 -16 -16 -16 -16 -15 -15 -15
-16 -16 -16 -16 -16 -16 -16 -16 -16 -15 -15 -16 -16 -16 -16 -16 -16 -16 -16 -16 -16 -16 -16 -17 -18 -18 -18 -18 -19 -19 -18 -18 -18 -20 -18 -17 -16 -17 -19 -18 -16 -15 -16 -15 -18 -17 -18
-17 -17 -16 -17 -17 -17 -17 -16 -16 -16 -17 -17 -17 -17 -17 -17 -17 -17 -17 -17 -17 -17 -18 -19 -19 -19 -18 -19 -19 -20 -19 -20 -19 -18 -18 -17 -16 -17 -18 -19 -18 -17 -17 -18 -18 -18 -18
-19 -18 -18 -18 -18 -18 -18 -19 -18 -18 -18 -18 -18 -18 -18 -18 -18 -19 -19 -19 -19 -19 -19 -20 -20 -20 -20 -20 -20 -20 -19 -20 -19 -19 -20 -19 -18 -17 -18 -17 -19 -19 -17 -18 -18 -19 -18
-20 -20 -20 -20 -20 -19 -19 -19 -20 -20 -20 -20 -20 -20 -20 -20 -20 -20 -20 -20 -20 -20 -20 -20 -21 -21 -21 -20 -21 -21 -21 -21 -20 -20 -20 -20 -18 -18 -18 -18 -19 -20 -19 -19 -19 -18 -18
-21 -21 -21 -21 -21 -21 -21 -20 -21 -22 -22 -22 -22 -21 -21 -21 -21 -21 -21 -21 -21 -21 -21 -21 -22 -22 -22 -22 -21 -22 -22 -22 -21 -20 -20 -20 -20 -19 -19 -19 -19 -19 -20 -20 -19 -19 -19
-23 -23 -23 -23 -23 -22 -22 -22 -23 -23 -23 -23 -23 -22 -22 -22 -22 -22 -22 -22 -22 -21 -22 -22 -22 -23 -23 -23 -23 -22 -23 -23 -22 -21 -21 -21 -21 -21 -20 -20 -21 -20 -20 -20 -19 -20 -19
-23 -23 -23 -23 -23 -23 -23 -23 -23 -23 -23 -23 -23 -23 -23 -23 -23 -23 -23 -23 -23 -23 -23 -24 -23 -24 -23 -23 -24 -24 -24 -23 -23 -22 -22 -22 -22 -22 -21 -21 -21 -20 -20 -19 -19 -20 -20
-24 -24 -24 -24 -24 -24 -24 -24 -24 -24 -24 -24 -24 -24 -24 -24 -24 -24 -24 -24 -24 -24 -24 -24 -24 -24 -24 -24 -25 -24 -24 -24 -24 -24 -24 -24 -23 -23 -22 -21 -21 -21 -20 -19 -19 -19 -19
-25 -25 -25 -25 -25 -25 -25 -25 -25 -25 -25 -25 -24 -24 -25 -25 -25 -25 -25 -25 -25 -25 -25 -25 -25 -25 -25 -25 -25 -24 -25 -25 -25 -25 -25 -25 -24 -24 -22 -23 -23 -22 -20 -21 -19 -19 -19
-26 -26 -26 -26 -26 -26 -26 -26 -25 -26 -26 -26 -26 -25 -26 -26 -26 -26 -26 -26 -26 -26 -26 -26 -26 -26 -26 -26 -26 -26 -26 -26 -26 -25 -26 -26 -26 -25 -24 -24 -24 -19 -21 -21 -21 -20 -19
-27 -27 -27 -27 -27 -27 -27 -27 -27 -27 -27 -27 -27 -27 -27 -26 -27 -28 -28 -28 -27 -27 -27 -27 -27 -28 -27 -27 -27 -27 -26 -26 -27 -26 -27 -27 -27 -26 -26 -25 -23 -21 -21 -21 -21 -21 -21
-28 -28 -28 -28 -28 -28 -27 -28 -27 -28 -28 -28 -29 -29 -29 -28 -28 -28 -28 -28 -28 -28 -28 -28 -28 -28 -28 -28 -28 -27 -27 -27 -27 -27 -28 -28 -27 -27 -27 -26 -24 -21 -22 -23 -23 -21 -22
-29 -29 -29 -29 -28 -28 -28 -28 -28 -29 -29 -29 -30 -30 -30 -29 -29 -29 -29 -29 -29 -28 -28 -28 -28 -28 -28 -28 -28 -28 -27 -28 -27 -27 -27 -28 -28 -28 -27 -27 -25 -24 -24 -23 -24 -23 -21
-29 -29 -29 -29 -29 -29 -29 -29 -30 -30 -30 -30 -30 -30 -30 -30 -29 -30 -29 -29 -29 -29 -29 -29 -28 -28 -28 -28 -28 -28 -27 -27 -27 -27 -27 -28 -29 -29 -28 -28 -26 -26 -26 -25 -25 -23 -23
-30 -30 -30 -30 -30 -30 -30 -30 -30 -31 -31 -30 -30 -31 -31 -31 -30 -30 -29 -29 -29 -29 -29 -29 -29 -29 -29 -29 -29 -29 -28 -28 -27 -27 -27 -27 -28 -29 -28 -27 -26 -28 -27 -26 -25 -24 -23

GFSGBSN_500_temp_288.txt.gz
Temp
-13 -12 -12 -12 -12 -12 -12 -12 -13 -13 -13 -13 -12 -12 -12 -12 -12 -12 -12 -12 -12 -12 -13 -13 -12 -12 -12 -12 -12 -12 -12 -13 -12 -13 -12 -12 -11 -10 -10 -10 -11 -10 -11 -11 -10 -10 -9
-13 -12 -12 -12 -12 -12 -12 -13 -12 -13 -13 -13 -12 -12 -12 -12 -12 -12 -12 -13 -12 -13 -13 -13 -13 -13 -13 -13 -12 -12 -12 -12 -13 -13 -13 -12 -12 -11 -11 -11 -10 -10 -10 -10 -11 -10 -10
-13 -12 -12 -12 -12 -12 -12 -13 -13 -13 -13 -13 -12 -12 -12 -12 -12 -12 -12 -13 -13 -13 -13 -13 -13 -13 -13 -13 -13 -13 -13 -13 -13 -13 -13 -13 -13 -12 -12 -11 -10 -10 -10 -11 -11 -11 -11
-13 -13 -13 -13 -13 -13 -13 -13 -13 -13 -13 -13 -13 -13 -13 -13 -12 -12 -12 -13 -13 -13 -13 -13 -13 -13 -13 -13 -13 -13 -13 -13 -13 -13 -13 -13 -13 -13 -12 -12 -12 -11 -11 -11 -11 -12 -11
-13 -13 -13 -13 -13 -13 -13 -13 -13 -13 -13 -13 -13 -13 -13 -13 -13 -13 -13 -13 -13 -13 -13 -13 -13 -13 -13 -13 -13 -13 -13 -13 -13 -13 -13 -13 -13 -13 -13 -13 -12 -12 -11 -11 -11 -12 -12
-14 -14 -14 -14 -14 -14 -13 -13 -14 -13 -13 -13 -13 -13 -13 -13 -13 -13 -13 -13 -13 -13 -13 -13 -13 -14 -13 -13 -13 -13 -13 -13 -13 -13 -13 -13 -13 -13 -13 -13 -12 -12 -12 -12 -11 -12 -13
-14 -14 -14 -14 -14 -14 -14 -14 -14 -14 -14 -14 -14 -14 -14 -13 -13 -13 -14 -13 -13 -13 -14 -14 -14 -14 -14 -14 -14 -14 -13 -13 -13 -13 -14 -13 -13 -13 -14 -14 -14 -13 -13 -12 -12 -12 -13
-14 -14 -14 -14 -14 -14 -14 -14 -14 -14 -14 -14 -14 -14 -14 -14 -14 -14 -14 -14 -14 -14 -14 -14 -14 -14 -14 -14 -14 -14 -14 -14 -14 -14 -13 -13 -13 -14 -14 -14 -14 -14 -13 -13 -13 -13 -14
-14 -14 -14 -14 -14 -14 -14 -14 -15 -15 -14 -14 -14 -14 -14 -14 -14 -14 -14 -14 -14 -14 -14 -14 -14 -14 -14 -14 -14 -14 -14 -14 -14 -14 -14 -14 -14 -14 -14 -14 -14 -14 -13 -14 -13 -14 -14
-15 -15 -15 -15 -15 -15 -15 -15 -15 -15 -15 -15 -15 -15 -15 -15 -15 -14 -14 -14 -14 -14 -14 -14 -14 -14 -14 -14 -14 -14 -14 -14 -14 -14 -14 -14 -14 -14 -14 -14 -14 -14 -14 -14 -14 -14 -14
-15 -15 -15 -15 -15 -15 -15 -15 -16 -16 -16 -16 -16 -15 -15 -15 -15 -15 -15 -15 -15 -15 -15 -15 -14 -14 -14 -15 -14 -15 -15 -14 -14 -15 -14 -14 -14 -14 -14 -14 -14 -14 -14 -14 -14 -14 -14
-15 -15 -16 -16 -16 -16 -16 -16 -16 -16 -16 -16 -16 -16 -16 -16 -16 -16 -15 -15 -15 -15 -15 -15 -14 -14 -15 -15 -15 -15 -15 -15 -15 -15 -15 -14 -14 -14 -14 -14 -14 -14 -14 -14 -15 -14 -15
-16 -16 -16 -16 -16 -16 -17 -17 -17 -17 -17 -17 -17 -17 -17 -16 -16 -16 -16 -16 -16 -16 -16 -15 -15 -15 -15 -15 -15 -16 -16 -15 -15 -15 -15 -15 -15 -15 -15 -15 -15 -15 -14 -14 -15 -15 -14
-16 -16 -16 -16 -16 -17 -17 -17 -17 -18 -18 -19 -19 -19 -19 -18 -18 -17 -17 -17 -17 -16 -16 -16 -15 -16 -16 -16 -16 -16 -16 -16 -15 -15 -15 -15 -15 -15 -15 -15 -15 -16 -16 -16 -16 -15 -15
-16 -16 -17 -17 -17 -18 -18 -19 -20 -20 -20 -20 -20 -20 -20 -20 -20 -20 -19 -19 -17 -17 -17 -17 -17 -17 -17 -17 -17 -17 -17 -17 -15 -15 -15 -14 -14 -15 -15 -15 -15 -15 -15 -16 -17 -16 -16
-17 -17 -17 -17 -18 -18 -19 -21 -22 -22 -22 -22 -22 -21 -21 -21 -21 -21 -21 -20 -20 -18 -18 -19 -19 -18 -18 -18 -18 -19 -18 -17 -16 -16 -15 -15 -15 -15 -16 -16 -16 -16 -16 -17 -17 -16 -16
-17 -18 -18 -18 -18 -19 -21 -23 -24 -24 -24 -24 -23 -23 -23 -23 -22 -22 -22 -22 -22 -20 -20 -20 -20 -19 -18 -19 -20 -20 -19 -18 -17 -17 -17 -16 -16 -16 -16 -17 -18 -18 -19 -18 -18 -17 -17
-18 -19 -19 -19 -19 -21 -23 -24 -25 -25 -25 -24 -24 -24 -24 -24 -23 -23 -23 -23 -22 -22 -21 -21 -21 -20 -20 -20 -21 -21 -20 -19 -19 -19 -19 -19 -18 -18 -17 -18 -19 -19 -19 -20 -19 -18 -18
-19 -19 -19 -20 -21 -22 -25 -26 -26 -26 -25 -25 -25 -25 -25 -24 -24 -24 -24 -23 -23 -22 -23 -22 -22 -21 -21 -21 -21 -22 -21 -21 -20 -20 -21 -20 -20 -19 -19 -19 -19 -20 -20 -20 -20 -19 -19
-20 -20 -20 -21 -23 -24 -26 -26 -26 -26 -26 -26 -25 -25 -25 -25 -25 -25 -24 -24 -24 -23 -23 -23 -22 -22 -22 -21 -22 -22 -22 -21 -21 -22 -22 -22 -21 -21 -21 -21 -20 -20 -20 -20 -20 -20 -20
-21 -21 -21 -22 -24 -24 -26 -27 -27 -27 -27 -27 -26 -26 -26 -26 -25 -25 -25 -25 -25 -24 -23 -23 -23 -23 -22 -22 -22 -22 -22 -22 -22 -22 -22 -22 -22 -22 -22 -21 -21 -21 -20 -21 -20 -20 -20
-21 -22 -22 -24 -24 -25 -26 -28 -28 -28 -27 -27 -27 -27 -27 -27 -26 -26 -26 -26 -25 -25 -25 -24 -24 -24 -24 -24 -23 -23 -22 -23 -23 -23 -23 -22 -22 -22 -22 -22 -22 -21 -21 -21 -21 -21 -20
-22 -22 -23 -24 -25 -25 -26 -28 -28 -28 -28 -29 -28 -28 -27 -28 -27 -27 -27 -27 -26 -26 -26 -26 -25 -25 -25 -24 -24 -24 -24 -24 -24 -24 -25 -23 -23 -23 -22 -22 -22 -21 -21 -22 -21 -21 -21
-22 -23 -24 -25 -25 -26 -27 -28 -29 -29 -29 -29 -29 -29 -28 -28 -28 -28 -28 -28 -28 -28 -27 -28 -27 -27 -26 -26 -26 -25 -25 -25 -25 -25 -26 -25 -24 -24 -23 -23 -23 -21 -21 -22 -22 -22 -22
-23 -24 -25 -25 -26 -26 -27 -28 -29 -29 -29 -29 -29 -29 -29 -29 -29 -29 -29 -29 -29 -29 -29 -29 -29 -28 -27 -27 -27 -26 -26 -26 -26 -27 -26 -26 -25 -25 -25 -24 -23 -22 -23 -23 -24 -22 -23
-24 -25 -25 -26 -26 -27 -27 -28 -29 -29 -30 -30 -30 -29 -29 -29 -30 -29 -29 -30 -30 -30 -30 -30 -29 -29 -29 -28 -28 -27 -27 -27 -28 -28 -27 -27 -27 -26 -26 -25 -24 -24 -24 -24 -24 -24 -24
-24 -25 -26 -27 -27 -27 -28 -28 -29 -29 -30 -30 -31 -30 -30 -29 -30 -30 -30 -30 -30 -30 -30 -30 -30 -30 -30 -30 -29 -29 -29 -28 -28 -28 -29 -28 -27 -27 -27 -26 -25 -25 -26 -26 -26 -25 -25
-25 -26 -27 -27 -28 -28 -28 -29 -29 -30 -30 -30 -31 -31 -30 -29 -29 -30 -31 -30 -30 -30 -31 -30 -30 -30 -30 -30 -30 -29 -29 -29 -29 -28 -28 -28 -28 -28 -27 -27 -27 -27 -27 -27 -27 -27 -26
-26 -27 -27 -28 -28 -29 -29 -29 -29 -30 -30 -30 -30 -30 -30 -30 -29 -29 -30 -30 -31 -31 -30 -30 -30 -30 -30 -30 -30 -30 -29 -29 -29 -28 -29 -28 -28 -29 -28 -27 -29 -29 -28 -28 -28 -27 -27

GFSGBSN_500_temp_294.txt.gz
Temp
-12 -12 -12 -12 -12 -12 -12 -13 -13 -13 -13 -13 -13 -13 -13 -13 -13 -13 -13 -13 -12 -12 -12 -12 -12 -12 -12 -12 -13 -12 -12 -12 -12 -12 -12 -12 -12 -12 -12 -12 -11 -10 -10 -11 -11 -11 -11
-13 -13 -13 -13 -13 -13 -13 -13 -13 -13 -13 -13 -13 -13 -13 -13 -13 -13 -13 -13 -13 -12 -12 -12 -12 -12 -12 -13 -13 -13 -12 -13 -12 -12 -13 -13 -12 -12 -12 -12 -12 -11 -11 -11 -11 -12 -11
-13 -13 -13 -13 -13 -13 -13 -13 -13 -13 -13 -13 -13 -13 -13 -13 -13 -13 -13 -13 -13 -12 -12 -12 -12 -12 -12 -13 -13 -13 -13 -13 -13 -13 -13 -13 -13 -13 -13 -13 -12 -12 -12 -11 -11 -12 -12
-13 -13 -14 -14 -14 -14 -14 -14 -13 -13 -13 -14 -14 -14 -13 -13 -13 -13 -13 -13 -13 -13 -13 -13 -13 -12 -13 -13 -13 -13 -13 -13 -13 -13 -13 -13 -13 -13 -13 -13 -13 -12 -12 -11 -12 -12 -12
-14 -14 -14 -14 -14 -14 -14 -14 -14 -14 -14 -14 -14 -14 -14 -14 -14 -14 -14 -13 -13 -13 -13 -13 -13 -13 -13 -13 -13 -13 -13 -13 -13 -13 -13 -13 -13 -13 -13 -13 -13 -13 -12 -12 -12 -12 -13
-14 -14 -14 -14 -14 -14 -14 -14 -14 -15 -15 -15 -14 -15 -14 -14 -14 -14 -14 -14 -14 -14 -14 -14 -13 -13 -13 -13 -14 -14 -14 -14 -14 -13 -13 -13 -13 -13 -13 -13 -13 -13 -13 -13 -13 -13 -13
-14 -14 -14 -14 -14 -14 -14 -14 -14 -15 -15 -15 -15 -15 -15 -15 -15 -14 -15 -14 -14 -14 -14 -14 -14 -14 -13 -14 -14 -14 -14 -14 -14 -14 -13 -13 -13 -13 -14 -14 -13 -13 -13 -13 -13 -13 -13
-15 -15 -15 -14 -14 -14 -14 -14 -15 -15 -15 -15 -15 -15 -15 -16 -15 -15 -15 -15 -15 -14 -14 -14 -14 -14 -14 -14 -14 -14 -14 -14 -14 -14 -14 -13 -13 -14 -14 -14 -13 -13 -14 -14 -14 -13 -13
-15 -15 -15 -14 -14 -14 -14 -14 -14 -15 -15 -15 -15 -15 -16 -16 -16 -16 -16 -16 -16 -16 -15 -15 -15 -15 -15 -14 -14 -14 -14 -14 -14 -14 -14 -14 -14 -14 -14 -14 -14 -14 -14 -14 -14 -14 -13
-15 -15 -15 -15 -15 -15 -15 -15 -15 -15 -15 -16 -16 -16 -16 -16 -16 -17 -17 -16 -16 -16 -16 -16 -15 -15 -15 -14 -15 -15 -15 -15 -14 -14 -14 -14 -14 -14 -14 -14 -14 -14 -14 -15 -15 -14 -14
-15 -15 -15 -15 -15 -15 -15 -15 -16 -16 -16 -17 -17 -17 -17 -17 -17 -17 -17 -17 -17 -17 -17 -16 -16 -15 -15 -15 -15 -15 -15 -15 -15 -15 -14 -14 -14 -14 -14 -14 -14 -15 -15 -14 -14 -15 -14
-15 -15 -15 -15 -15 -15 -16 -16 -16 -16 -17 -17 -17 -18 -18 -18 -18 -18 -18 -18 -18 -17 -17 -18 -17 -16 -16 -16 -15 -15 -15 -15 -15 -15 -14 -14 -15 -14 -14 -15 -15 -15 -15 -15 -15 -15 -14
-15 -15 -15 -15 -16 -16 -16 -16 -17 -17 -17 -18 -18 -18 -18 -20 -22 -22 -22 -22 -21 -19 -19 -19 -18 -17 -17 -16 -16 -16 -15 -15 -15 -15 -15 -15 -15 -15 -15 -15 -15 -15 -15 -15 -15 -14 -14
-15 -15 -15 -15 -16 -16 -16 -17 -17 -18 -18 -18 -19 -19 -21 -22 -24 -24 -24 -24 -23 -22 -21 -20 -19 -19 -18 -18 -17 -16 -16 -15 -15 -15 -15 -15 -15 -15 -15 -15 -15 -15 -15 -15 -15 -15 -15
-15 -15 -15 -16 -16 -16 -17 -17 -18 -18 -18 -19 -19 -21 -23 -24 -25 -25 -25 -25 -24 -23 -23 -22 -20 -20 -20 -19 -19 -18 -17 -16 -16 -16 -16 -16 -16 -16 -16 -15 -16 -16 -15 -16 -16 -15 -15
-15 -16 -16 -16 -16 -17 -17 -18 -18 -19 -19 -19 -20 -22 -24 -25 -25 -25 -25 -25 -25 -24 -24 -23 -22 -22 -21 -21 -20 -19 -18 -17 -17 -16 -16 -16 -16 -16 -16 -16 -16 -16 -16 -16 -16 -16 -15
-16 -16 -16 -16 -17 -18 -18 -19 -19 -19 -20 -21 -21 -24 -25 -26 -26 -26 -26 -25 -25 -25 -24 -24 -23 -22 -23 -21 -21 -20 -20 -19 -18 -18 -17 -17 -17 -17 -17 -17 -17 -17 -16 -17 -17 -16 -16
-17 -17 -17 -17 -18 -18 -19 -19 -20 -20 -21 -22 -23 -24 -25 -26 -26 -26 -26 -26 -25 -25 -25 -24 -24 -23 -23 -22 -21 -21 -21 -20 -20 -19 -19 -19 -18 -19 -18 -18 -18 -17 -17 -17 -17 -17 -16
-18 -18 -18 -18 -19 -19 -19 -20 -20 -21 -22 -22 -24 -25 -25 -26 -27 -27 -26 -27 -26 -26 -25 -25 -25 -24 -24 -23 -23 -22 -21 -21 -21 -21 -20 -20 -20 -20 -20 -19 -19 -19 -18 -18 -18 -18 -17
-18 -18 -18 -19 -20 -20 -21 -21 -21 -22 -23 -24 -25 -26 -26 -26 -27 -27 -27 -27 -26 -26 -26 -26 -25 -25 -24 -24 -24 -23 -23 -22 -22 -22 -22 -21 -21 -21 -21 -20 -20 -20 -20 -19 -19 -18 -18
-19 -19 -19 -20 -21 -21 -21 -21 -22 -22 -23 -25 -26 -26 -26 -27 -28 -28 -28 -27 -27 -27 -27 -27 -27 -26 -25 -25 -24 -24 -23 -23 -23 -23 -23 -23 -22 -22 -22 -21 -21 -20 -20 -20 -20 -20 -19
-19 -20 -20 -21 -21 -22 -22 -22 -22 -23 -24 -26 -26 -27 -27 -27 -28 -28 -28 -28 -28 -27 -27 -27 -27 -27 -27 -26 -26 -25 -24 -24 -24 -24 -24 -24 -23 -22 -22 -22 -22 -21 -21 -21 -21 -20 -20
-20 -20 -21 -22 -22 -22 -23 -23 -23 -23 -24 -26 -27 -28 -28 -28 -28 -29 -29 -29 -29 -28 -28 -27 -27 -27 -27 -27 -26 -26 -26 -26 -25 -24 -24 -23 -23 -23 -22 -22 -22 -22 -22 -22 -22 -21 -20
-20 -21 -21 -22 -22 -23 -23 -24 -24 -24 -25 -26 -27 -28 -28 -29 -29 -29 -29 -29 -29 -29 -29 -29 -28 -27 -27 -27 -27 -26 -26 -25 -25 -25 -25 -24 -24 -23 -23 -23 -22 -22 -22 -22 -22 -22 -21
-21 -21 -22 -22 -23 -23 -24 -25 -25 -25 -26 -27 -28 -28 -28 -28 -29 -29 -29 -30 -30 -30 -29 -29 -29 -29 -29 -28 -27 -27 -27 -27 -26 -26 -25 -25 -24 -24 -24 -23 -23 -22 -22 -22 -22 -22 -22
-21 -22 -22 -23 -23 -24 -25 -25 -26 -26 -27 -28 -28 -28 -28 -28 -29 -29 -30 -30 -30 -30 -30 -30 -30 -30 -29 -29 -28 -28 -27 -28 -28 -27 -26 -26 -25 -25 -24 -24 -23 -23 -23 -23 -22 -23 -22
-22 -22 -23 -23 -24 -24 -25 -26 -26 -27 -28 -28 -29 -29 -29 -28 -29 -29 -29 -29 -30 -30 -29 -30 -30 -30 -30 -30 -29 -29 -28 -29 -28 -28 -28 -27 -27 -26 -26 -25 -24 -24 -24 -25 -24 -23 -23
-22 -22 -23 -24 -24 -25 -25 -26 -27 -28 -28 -29 -29 -29 -29 -29 -28 -29 -29 -29 -30 -30 -29 -29 -29 -29 -30 -30 -30 -30 -29 -29 -29 -29 -29 -29 -28 -27 -27 -27 -25 -26 -26 -27 -26 -25 -24
-23 -23 -24 -24 -25 -25 -26 -26 -27 -28 -29 -29 -29 -30 -30 -29 -29 -29 -29 -30 -30 -29 -29 -29 -29 -29 -30 -30 -30 -30 -30 -29 -29 -28 -29 -29 -29 -30 -29 -28 -27 -27 -27 -28 -27 -27 -26